Regional Weather Roundup
Issued by NWS

Home | Current Version | Previous Version | Text Only | Print | Product List | Glossary Off
Versions: 1 2 3 4 5 6 7 8 9 10 11 12 13 14 15 16 17 18 19 20 21 22 23 24 25 26 27 28 29 30 31 32 33 34 35 36 37 38 39 40 41 42 43 44 45 46 47 48 49 50

000
ASUS43 KLOT 271712
RWRIL

ILLINOIS REGIONAL WEATHER ROUNDUP
NATIONAL WEATHER SERVICE CHICAGO/ROMEOVILLE IL
1200 PM CDT TUE SEP 27 2016

NOTE: "FAIR" INDICATES FEW OR NO CLOUDS BELOW 12,000 FEET WITH NO
SIGNIFICANT WEATHER AND/OR OBSTRUCTIONS TO VISIBILITY.

* THESE STATIONS ARE NOT UNDER NWS QUALITY CONTROL. THEY ALSO MAY NOT
  REPORT WEATHER SUCH AS PRECIPITATION OR FOG.

ILZ001-002-007-009-015-016-024-271800-
NORTHWEST ILLINOIS

CITY           SKY/WX    TMP DP  RH WIND       PRES   REMARKS
MOLINE         FAIR      69  38  32 W17G26    29.88F
STERLING*      FAIR      66  36  32 W22G33    29.84F
SAVANNA*       FAIR      64  37  36 W14G25    29.84F
$$

ILZ003-004-008-010-011-017-018-271800-
NORTH CENTRAL ILLINOIS

CITY           SKY/WX    TMP DP  RH WIND       PRES   REMARKS
ROCKFORD       FAIR      65  39  38 W23G33    29.81F
FREEPORT*      FAIR      63  39  41 W21G30    29.82F
ROCHELLE*      FAIR      64  34  32 W21G35    29.83F
DE KALB*       FAIR      64  34  32 W24       29.81F
$$

ILZ005-006-012>014-019>023-271800-
NORTHEAST ILLINOIS

CITY           SKY/WX    TMP DP  RH WIND       PRES   REMARKS
CHICAGO-OHARE  FAIR      66  32  28 W25G33    29.78F
CHICAGO-MIDWAY FAIR      68  29  23 W25G33    29.79F
AURORA         FAIR      68  32  26 W23G38    29.81F
LANSING*       FAIR      68  39  34 W23G29    29.81F
JOLIET*        FAIR      69  34  27 W13G24    29.82F
WAUKEGAN       FAIR      65  40  39 W9G23     29.73F
DUPAGE AIRPORT FAIR      66  32  28 W23G31    29.79F
KANKAKEE*      FAIR      71  32  23 W18G26    29.84F
WHEELING       FAIR      66  31  27 W21G35    29.78F
MORRIS*        FAIR      69  31  24 W20G30    29.82F
ROMEOVILLE*    FAIR      69  39  33 W20G25    29.81F
NORTHERLY ISL    N/A     66  29  25 NW9         N/A
$$

LMZ740>746-271800-
SOUTHERN LAKE MICHIGAN

STATION/POSITION SKY/WX   TEMP    WIND        PRES    VSBY  WAVE
                          AIR SEA DIR/SP/G                  HT/PER
                          (F)     (DEG/KT/KT) (MB)    (MI)  (FT/S)
SOUTHERN BUOY              60 70  260/ 19/ 23 1006.5F         5/ 6
WILMETTE HARBOR            63 60  280/ 23/ 31   N/A           4/ 3
HARRISON CRIB              65     250/ 24/ 27   N/A
BURNHAM HARBOR             66     260/ 18/ 24   N/A
CALUMET HARBOR             67     250/  9/ 21 1008.6F
BURNS HARBOR               64     260/ 21/ 29 1009.8F
MICHIGAN CITY              63     220/ 31/ 34   N/A
MICHIGAN CITY 6N           64 67  260/ 21/ 27   N/A           6/ 4
ST. JOSEPH                 64 67  250/ 21/ 27 1008.4          8/ 6
$$

ILZ025>027-034>036-040-047-049-050-058-095>099-271800-
WEST-CENTRAL ILLINOIS

CITY           SKY/WX    TMP DP  RH WIND       PRES   REMARKS
QUINCY         FAIR      71  44  37 W12       29.95F
GALESBURG*     FAIR      70  34  26 W16G25    29.89F
MACOMB*        FAIR      71  37  28 W10G20    29.94F
JACKSONVILLE*  FAIR      73  44  34 W10       29.94F
PITTSFIELD*    FAIR      72  47  41 SW10      29.96F
$$

ILZ028>032-037-038-041>044-048-051>054-059>061-271800-
CENTRAL ILLINOIS

CITY           SKY/WX    TMP DP  RH WIND       PRES   REMARKS
PONTIAC        FAIR      72  32  23 W20G31    29.86F
BLOOMINGTON    FAIR      69  39  33 W16       29.90F
DECATUR        FAIR      73  45  36 SW15      29.92F
PEORIA         FAIR      71  35  26 W20G28    29.90F
LACON*         FAIR      70  27  20 W13G22    29.86F
LINCOLN*       FAIR      73  41  31 W6G20     29.91F
SPRINGFIELD    FAIR      75  42  30 W10       29.93F
TAYLORVILLE    FAIR      74  44  34 W9G20     29.94F
$$

ILZ033-039-045-046-055>057-062-063-271800-
EAST-CENTRAL ILLINOIS

CITY           SKY/WX    TMP DP  RH WIND       PRES   REMARKS
CHAMPAIGN      FAIR      73  38  27 W15G23    29.91F
RANTOUL*       FAIR      74  35  24 W17G29    29.89F
MATTOON        FAIR      73  42  32 W14G20    29.93F
PARIS*         FAIR      75  44  32 W10       29.92F
$$

ILZ079-100>102-271800-
SOUTHWEST ILLINOIS

CITY           SKY/WX    TMP DP  RH WIND       PRES   REMARKS
BELLEVILLE     FAIR      73  49  42 W12G20    29.97F
CAHOKIA*       FAIR      74  45  35 NW8       29.99F
SPARTA*        FAIR      72  49  43 W16       30.01F
$$

ILZ064>066-069>071-074>076-080>082-084>086-088>090-092>094-271800-
SOUTH-CENTRAL ILLINOIS

CITY           SKY/WX    TMP DP  RH WIND       PRES   REMARKS
CARBONDALE     FAIR      72  51  47 W10       30.02F
CAIRO*         FAIR      74  45  35 NW6       30.03F
EFFINGHAM*     FAIR      73  52  47 W6        29.97F
MARION         SUNNY     73  50  43 SW12      30.03F
MT. VERNON     FAIR      73  48  40 W10       29.99F
CENTRALIA*     FAIR      75  51  42 W12       29.97F
SALEM*         FAIR      76  47  36 SW14G20   29.97F
METROPOLIS*    FAIR      74  46  37 CALM      30.04F
$$

ILZ067-068-072-073-078-083-087-091-271800-
SOUTHEAST ILLINOIS

CITY           SKY/WX    TMP DP  RH WIND       PRES   REMARKS
LAWRENCEVILLE  FAIR      75  47  36 W16       29.96F
FLORA*         FAIR      75  49  38 W14G20    29.97F
FAIRFIELD*     FAIR      74  49  40 W6        29.97F
HARRISBURG*    FAIR      74  48  39 W8        30.01F
ROBINSON*      FAIR      75  48  39 W10G20    29.95F
CARMI*         FAIR      76  49  38 SW8       29.99F
$$

ABBREVIATIONS USED IN REMARKS
   TC - TEMPERATURE IN CELSIUS
  WCI - WIND CHILL INDEX
   HX - HEAT INDEX
  VSB - VISIBILITY
$$




USA.gov is the U.S. government's official web portal to all federal, state and local government web resources and services.